This is the latest recevied weather packets stored in our database for station/object KM4CNW. If no packets are shown the sender has not sent any weather packets the latest 10 day(s).
| Time | Temp. | Humidity | Pressure | Rain* | Wind** | Luminosity | Snow |
|---|---|---|---|---|---|---|---|
| 1777245476 | 17.78° C | 62% | 1010.8 hPa | 0 mm | - | 26 W/m² | - |
| 1777245172 | 17.78° C | 62% | 1010.7 hPa | 0 mm | - | 29 W/m² | - |
| 1777244868 | 17.78° C | 61% | 1010.8 hPa | 0 mm | - | 32 W/m² | - |
| 1777244563 | 18.33° C | 61% | 1010.8 hPa | 0 mm | - | 34 W/m² | - |
| 1777244260 | 18.33° C | 61% | 1010.6 hPa | 0 mm | - | 37 W/m² | - |
| 1777243959 | 18.89° C | 59% | 1010.4 hPa | 0 mm | - | 40 W/m² | - |
| 1777243655 | 18.89° C | 58% | 1010.6 hPa | 0 mm | - | 42 W/m² | - |
| 1777243353 | 19.44° C | 58% | 1010.4 hPa | 0 mm | - | 44 W/m² | - |
| 1777243047 | 19.44° C | 58% | 1010.5 hPa | 0 mm | - | 45 W/m² | - |
| 1777242745 | 20° C | 58% | 1010.5 hPa | 0 mm | - | 125 W/m² | - |
| 1777242441 | 20° C | 56% | 1010.5 hPa | 0 mm | - | 168 W/m² | - |
| 1777242138 | 20° C | 56% | 1010.4 hPa | 0 mm | - | 178 W/m² | - |
| 1777241834 | 20.56° C | 57% | 1010.3 hPa | 0 mm | - | 209 W/m² | - |
| 1777241532 | 20.56° C | 56% | 1010.3 hPa | 0 mm | - | 102 W/m² | - |
| 1777241230 | 20° C | 57% | 1010.1 hPa | 0 mm | - | 244 W/m² | - |
| 1777240927 | 20.56° C | 56% | 1010.1 hPa | 0 mm | - | 264 W/m² | - |
| 1777240625 | 20.56° C | 55% | 1010.3 hPa | 0 mm | - | 286 W/m² | - |
| 1777240322 | 20.56° C | 56% | 1010.1 hPa | 0 mm | - | 301 W/m² | - |
| 1777240019 | 21.11° C | 54% | 1010.1 hPa | 0 mm | - | 315 W/m² | - |
| 1777239716 | 21.11° C | 56% | 1010.1 hPa | 0 mm | - | 346 W/m² | - |
| 1777239413 | 21.11° C | 56% | 1010.2 hPa | 0 mm | - | 362 W/m² | - |
| 1777239110 | 21.11° C | 55% | 1010 hPa | 0 mm | - | 223 W/m² | - |
| 1777238807 | 21.67° C | 53% | 1009.9 hPa | 0 mm | - | 405 W/m² | - |
| 1777238504 | 21.11° C | 53% | 1009.8 hPa | 0 mm | - | 422 W/m² | - |
| 1777238200 | 21.11° C | 56% | 1009.8 hPa | 0 mm | - | 429 W/m² | - |
* Rain latest hour (hover to see other rain measurements)
** Current wind speed in m/s (hover to see current wind gust speed)